Regional Weather Roundup
Issued by NWS

Home | Current Version | Previous Version | Text Only | Print | Product List | Glossary Off
Versions: 1 2 3 4 5 6 7 8 9 10 11 12 13 14 15 16 17 18 19 20 21 22 23 24 25 26 27 28

000
ASUS45 KSLC 212210
RWRUT

UTAH REGIONAL WEATHER ROUNDUP
NATIONAL WEATHER SERVICE SALT LAKE CITY UT
300 PM MST SUN JAN 21 2018

UTZ001>011-023>025-212300-

NORTHERN UTAH

CITY           SKY/WX    TMP DP  RH WIND       PRES   REMARKS
BRIGHAM CITY   SUNNY     35  17  48 CALM      30.21S
HILL AFB       SUNNY     30  16  55 CALM      30.19R
LOGAN          SUNNY     32  20  61 SW5       30.20R WCI  27
OGDEN          SUNNY     34  17  50 W6        30.19S WCI  29
SALT LAKE CITY MOSUNNY   35  22  58 N8        30.21S WCI  29
TOOELE VALLEY  SUNNY     32  23  69 SE3       30.23R
WENDOVER       MOSUNNY   39  19  44 SE13      30.21S WCI  31
HEBER CITY       N/A     32  12  43 CALM      30.12R
WEST JORDAN    SUNNY     30  23  77 NW8       30.21S WCI  22

$$

UTZ011>015-024>027-212300-

CENTRAL/NORTHEAST UTAH

CITY           SKY/WX    TMP DP  RH WIND       PRES   REMARKS
PROVO AIRPORT  MOSUNNY   32  20  61 NW16      30.21R WCI  21
MOAB/CANYONLAN CLOUDY    39  19  44 NW12      30.03R WCI  32
DELTA          CLOUDY    30  23  74 SE6       30.23S WCI  24
PRICE          SUNNY     31  11  43 NW20G29   30.04R WCI  19
RICHFIELD      PTSUNNY   28  19  69 NE8       30.21R WCI  20
ROOSEVELT      SUNNY     37  12  35 NW3       30.05R
VERNAL         MOSUNNY   31  16  54 SE3       30.05R

$$

UTZ013>016-019>022-027-212300-

SOUTHERN UTAH

CITY           SKY/WX    TMP DP  RH WIND       PRES   REMARKS
BRYCE CANYON   FLURRIES  23  13  65 NW22      30.08R WCI   8
CEDAR CITY     MOSUNNY   30  18  60 NE12      30.18S WCI  20
MILFORD        SUNNY     30  21  69 E6        30.21S WCI  24
ST GEORGE      PTCLDY    47  18  31 E5        30.23R
HANKSVILLE     SUNNY     41   9  26 W18       30.10R
KANAB          CLOUDY    41  16  36 SE6       30.18R
BLANDING         N/A     31  16  54 NW23G31   30.07R WCI  17

$$

REGIONAL REPORTS     COLORADO/ARIZONA

CITY           SKY/WX    TMP DP  RH WIND       PRES   REMARKS
CRAIG, CO      CLOUDY    24  15  68 NW20G28   29.97R WCI  10
GRAND JUNCTION CLOUDY    31  22  69 NW22      30.02R WCI  18
RIFLE, CO      CLOUDY    30  18  60 NW20      29.97R WCI  17
MONTROSE, CO   CLOUDY    29  19  66 NW23G30   29.98R WCI  15
CORTEZ, CO     MOSUNNY   30  18  60 NW22G30   29.96R WCI  17
COLORADO CITY    N/A     39  18  41 NW18G26   30.19S WCI  30
PAGE, AZ       SUNNY     44   8  23 NW14G31   30.07R
GRAND CANYON   SUNNY     30  11  45 NW10G17   30.10R WCI  21
KINGMAN, AZ    SUNNY    N/A N/A N/A N14G24    30.22F
FLAGSTAFF, AZ  SUNNY     30  10  43 W12       30.07R WCI  20

$$

REGIONAL REPORTS    NEVADA/IDAHO/WYOMING

CITY           SKY/WX    TMP DP  RH WIND       PRES   REMARKS
LAS VEGAS, NV  MOSUNNY   53  13  20 N10       30.24F
ELY, NY        SUNNY     26  14  60 NW5       30.20S WCI  20
ELKO, NV       PTSUNNY   36  20  52 W14       30.21F WCI  27
POCATELLO, ID  MOSUNNY   34  21  59 SW16      30.19S WCI  24
BURLEY, ID     SUNNY     38  22  52 W10       30.18F WCI  31
FORT BRIDGER,    N/A     23  15  70 W13       30.09R WCI  11
EVANSTON, WY   FLURRIES  21  13  71 W9        30.08R WCI  11
ROCK SPRINGS,  LGT SNOW  20  16  84 SW12      30.03R FOG     WCI   8

$$




USA.gov is the U.S. government's official web portal to all federal, state and local government web resources and services.